Tracking 28794 objects as of 19-Apr-2024
HD Live streaming from Space Station
objects crossing your sky now

STARLINK-3523

Track STARLINK-3523 now!
10-day predictions
STARLINK-3523 is classified as:


NORAD ID: 51729
Int'l Code: 2022-016R
Perigee: 545.9 km
Apogee: 547.9 km
Inclination: 53.2 °
Period: 95.4 minutes
Semi major axis: 6917 km
RCS: Unknown
Launch date: February 21, 2022
Source: United States (US)
Launch site: AIR FORCE EASTERN TEST RANGE (AFETR)
Your satellite tracking list
Your tracking list is empty




NASA's NSSDC Master Catalog

Two Line Element Set (TLE):
1 51729U 22016R   24110.45730822  .00002058  00000-0  14739-3 0  9996
2 51729  53.2172 173.1983 0001399  81.8614 278.2536 15.08835856119517
Source of the keplerian elements: AFSPC